Location: Feydey
(46.3431°N, 7.0106°E)
Time: 07:22:44
(UTC+00:00)

Cosmos 1758 - Pass Details

Date: 20 June 2021
Orbit: 539 x 561 km, 82.5° (Epoch: 04 August)

Event Time Altitude Azimuth Distance (km) Brightness Sun altitude
Rises 20:22:06 0° 344° (NNW) 2,713 8.1 -7.9°
Reaches altitude 10° 20:24:21 10° 337° (NNW) 1,814 7.3 -8.1°
Maximum altitude 20:28:06 41° 267° (W) 793 4.5 -8.6°
Drops below altitude 10° 20:31:49 10° 197° (SSW) 1,796 5.6 -9.0°
Enters shadow 20:33:55 - 190° (S) 2,637 6.4 -9.2°
